SCP
0 0 0 0 0 0 0 0 0 0 0 0 0 0 0 0 0 0 0 0 0 0 0 0 0 0 0 0 0 0 0 0 0 0 0 0 0 0 0 0 0 0 0
0 0 0 0 0 0 0 0 0 0 0 0 0 0 0 0 0 0 0 0 0 0 0 0 0 0 0 0 0 0 0 0 0 0 0 0 0 0 0 0 0 0 0
0 0 0 0 0 0 0 0 0 0 0 0 0 0 0 0 0 0 0 0 0 0 0 0 0 0 0 0 0 0 0 0 0 0 0 0 0 0 0 0 0 0 0
0 0 0 0 0 0 0 0 0 0 0 0 0 0 0 0 0 0 0 0 0 0 0 0 0 0 0 0 0 0 0 0 0 0 0 0 0 0 0 0 0 0 0
0 0 0 0 0 0 0 0 0 0 0 0 0 0 0 0 0 0 0 0 0 0 0 0 0 0 0 0 0 0 0 0 0 0 0 0 0 0 0 0 0 0 0
0 0 0 0 0 0 0 0 0 0 0 0 0 0 0 0 0 0 0 0 0 0 0 0 0 0 0 0 0 0 0 0 0 0 0 0 0 0 0 0 0 0 0
0 0 0 0 0 0 0 0 0 0 0 0 0 0 0 0 0 0 0 0 0 0 0 0 0 0 0 0 0 0 0 0 0 0 0 0 0 0 0 0 0 0 0
0 0 0 0 0 0 0 0 0 0 0 0 0 0 0 0 0 0 0 0 0 0 0 0 0 0 0 0 0 0 0 0 0 0 0 0 0 0 0 0 0 0 0
0 0 0 0 0 0 0 0 0 0 0 0 0 0 0 0 0 0 0 0 0 0 0 0 0 0 0 0 0 0 0 0 0 0 0 0 0 0 0 0 0 0 0
0 0 0 0 0 0 0 0 0 0 0 0 0 0 0 0 0 0 0 0 0 0 0 0 0 0 0 0 0 0 0 0 0 0 0 0 0 0 0 0 0 0 0
0 0 0 0 0 0 0 0 0 0 0 0 0 0 0 0 0 0 0 0 0 0 0 0 0 0 0 0 0 0 0 0 0 0 0 0 0 0 0 0 0 0 0
0 0 0 0 0 0 0 0 0 0 0 0 0 0 0 0 0 0 0 0 0 0 0 0 0 0 0 0 0 0 0 0 0 0 0 0 0 0 0 0 0 0 0
0 0 0 -0 -0 -0 0 0 0 0 0 0 0 0 0 0 0 0 0 0 0 0 0 0 0 0 0 0 0 0 0 0 0 0 0 0 0 0 0 0 0 0 0
0 0 0 -0 -0 -0 -0 -0 0 0 0 0 0 0 0 0 0 0 0 0 0 0 0 0 0 0 0 0 0 0 0 0 0 0 0 0 0 0 0 0 0 0 0
0 0 0 -0 -0 -0 -0 0 0 0 0 0 0 0 0 0 0 0 0 0 0 0 0 0 0 0 0 0 0 0 0 0 0 0 0 0 0 0 0 0 0 0 0
0 0 0 0 -0 0 0 0 0 0 0 0 0 0 0 0 0 0 0 0 0 0 0 0 0 0 0 0 0 0 0 0 0 0 0 0 0 0 0 0 0 0 0
0 0 0 0 0 0 0 0 0 0 0 0 0 0 0 0 0 0 0 0 0 0 0 0 0 0 0 0 0 0 0 0 0 0 0 0 0 0 0 0 0 0 0
0 0 0 0 0 0 0 0 0 0 0 0 0 0 0 0 0 0 0 0 0 0 0 0 0 0 0 0 0 0 0 0 0 0 0 0 0 0 0 0 0 0 0
0 0 0 0 0 0 0 0 0 0 0 0 0 0 0 0 0 0 0 0 0 0 0 0 0 0 0 0 0 0 0 0 0 0 0 0 0 0 0 0 0 0 0
0 0 0 0 0 0 0 0 0 0 0 0 0 0 0 0 0 0 0 0 0 0 0 0 0 0 0 0 0 0 0 0 0 0 0 0 0 0 0 0 0 0 0
0 0 0 0 0 0 0 0 0 0 0 0 0 0 0 0 0 0 0 0 0 0 0 0 0 0 0 0 0 0 0 0 0 0 0 0 0 0 0 0 0 0 0
0 0 0 0 0 0 0 0 0 0 0 0 0 0 0 0 0 0 0 0 0 0 0 0 0 0 0 0 0 0 0 0 0 0 0 0 0 0 0 0 0 0 0
0 0 0 0 0 0 0 0 0 0 0 0 0 0 0 0 0 0 0 0 0 0 0 0 0 0 0 0 0 0 0 0 0 0 0 0 0 0 0 0 0 0 0
0 0 0 0 0 0 0 0 0 0 0 0 0 0 0 0 0 0 0 0 0 0 0 0 0 0 0 0 0 0 0 0 0 0 0 0 0 0 0 0 0 0 0
0 0 0 0 0 0 0 0 0 0 0 0 0 0 0 0 0 0 0 0 0 0 0 0 0 0 0 0 0 0 0 0 0 0 0 0 0 0 0 0 0 0 0
0 0 0 0 0 0 0 0 0 0 0 0 0 0 0 0 0 0 0 0 0 0 0 0 0 0 0 0 0 0 0 0 0 0 0 0 0 0 0 0 0 0 0
Wind_Speed
3 4 6 5 6 6 6 6 7 8 8 8 8 8 9 9 8 8 8 8 9 9 9 9 9 9 9 8 8 8 8 7 7 8 8 7 6 6 6 5 4 5 7
4 4 6 6 6 6 7 7 8 9 8 8 8 8 9 8 9 9 8 8 9 9 10 10 9 9 10 10 10 9 8 7 8 8 7 7 7 6 6 5 4 5 6
4 5 6 7 7 7 7 8 9 9 9 9 9 9 9 9 9 8 8 8 9 9 9 9 9 9 10 10 10 10 9 8 8 7 4 4 7 7 6 6 5 6 5
5 5 7 8 7 8 8 8 9 9 9 9 9 9 9 9 9 8 8 9 9 9 9 10 9 10 10 10 9 10 9 8 7 2 2 4 5 8 6 6 5 5 5
5 6 8 7 8 8 8 8 9 9 9 9 9 9 9 9 9 9 10 10 10 10 10 10 10 9 9 9 9 9 8 7 5 2 4 4 4 6 5 5 5 5 4
6 6 8 7 7 8 8 9 8 9 9 9 9 9 9 9 9 9 10 10 10 10 10 10 10 10 10 10 9 9 7 5 2 4 4 4 4 6 5 5 5 4 4
6 6 8 7 7 8 8 8 8 8 8 9 9 9 9 9 9 10 9 10 10 10 10 10 10 10 10 10 9 8 6 3 3 4 3 4 6 6 5 5 5 4 4
6 6 7 8 7 7 7 7 7 8 8 8 8 9 9 9 9 9 9 9 9 9 9 10 9 10 10 10 9 8 6 3 3 4 4 5 7 6 6 5 5 5 4
5 5 5 6 6 6 7 7 7 7 8 7 8 8 8 8 9 9 9 9 9 9 9 9 9 10 10 9 8 8 7 4 3 3 4 5 7 6 5 5 4 5 5
5 4 4 5 4 4 5 7 6 7 7 7 7 7 6 6 7 7 8 9 9 9 9 9 9 9 9 9 8 7 4 0 4 4 4 5 7 6 6 5 5 5 5
4 4 4 4 4 4 5 6 5 5 5 3 5 5 2 3 5 5 9 9 8 8 9 9 9 8 7 8 7 4 1 2 5 4 5 7 6 5 5 5 5 5 5
3 3 3 3 3 3 3 3 2 3 3 2 3 3 3 4 4 5 8 8 7 7 7 8 6 4 2 4 5 1 2 4 3 4 5 7 6 6 6 6 5 5 5
3 3 3 2 2 2 2 2 2 2 2 2 3 3 2 3 3 3 3 4 4 3 4 5 3 3 3 3 3 3 4 3 3 3 6 8 7 6 6 6 6 5 5
2 2 2 2 1 2 2 1 1 1 1 2 2 3 2 2 2 2 2 2 2 2 3 2 2 4 4 4 4 4 4 3 3 3 5 8 7 6 6 6 6 5 5
2 1 2 1 1 1 1 1 1 1 1 2 1 1 2 1 2 2 2 2 2 2 2 2 2 4 3 4 4 4 4 4 4 3 4 8 8 7 7 6 5 5 5
1 1 1 1 1 1 1 1 1 1 1 1 1 1 2 2 2 1 2 2 2 1 2 2 3 3 3 3 4 4 4 4 4 3 3 5 7 7 7 6 6 5 4
1 1 1 1 1 0 1 1 1 0 1 1 1 1 2 2 1 1 1 1 1 1 1 2 3 2 3 3 4 4 4 4 3 3 3 3 3 6 6 7 7 6 5
0 1 2 1 1 1 1 1 1 1 1 1 1 1 1 1 1 1 1 1 1 1 1 1 1 2 2 2 3 3 2 3 4 4 3 3 3 3 5 7 7 6 5
0 0 2 2 1 1 1 1 1 1 1 1 1 1 1 1 1 1 1 1 1 1 1 1 1 1 2 2 2 2 2 3 3 3 3 4 3 3 3 4 4 5 5
1 0 1 2 1 2 1 1 2 2 2 2 2 2 2 1 1 1 0 0 1 1 1 1 1 1 1 1 1 2 2 2 2 3 3 3 3 3 3 3 2 3 4
2 1 1 1 2 2 1 1 1 1 1 2 2 2 2 2 1 1 0 1 0 1 1 1 1 1 1 1 0 1 1 1 2 2 2 2 3 3 3 3 3 3 2
2 1 2 2 2 2 1 0 0 1 1 2 1 2 2 1 1 1 0 1 1 1 1 1 1 0 0 0 1 1 1 2 1 2 2 2 3 2 3 3 3 3 3
3 2 2 2 2 2 2 1 1 2 1 1 1 1 2 1 1 1 1 1 0 0 1 1 2 1 1 1 1 2 1 1 1 1 2 2 3 3 3 3 4 4 3
3 3 3 3 3 2 2 2 2 1 1 1 1 1 1 1 1 1 1 0 0 0 1 1 1 1 1 1 0 1 2 1 1 1 1 1 2 3 3 3 3 4 4
4 3 3 4 4 3 3 2 1 2 1 1 1 2 1 2 2 2 1 0 0 0 0 0 1 1 1 1 1 1 1 1 2 2 1 1 1 1 2 3 2 3 3
5 4 4 4 4 3 3 2 2 2 1 2 1 2 1 1 1 2 1 1 0 0 1 1 1 1 1 1 1 1 1 1 2 1 2 1 1 0 1 2 2 2 2
Wind_Direction
36 47 55 49 55 59 63 63 69 71 69 70 74 76 76 76 77 76 76 74 74 73 71 73 81 88 91 91 91 94 96 99 105 107 108 107 107 109 108 111 132 116 103
49 63 66 56 59 66 72 73 74 73 71 70 74 75 75 75 77 75 75 76 75 74 71 70 73 83 88 89 91 94 96 94 96 98 106 114 108 107 106 105 76 85 99
64 73 81 61 61 69 76 78 78 75 72 71 71 73 74 75 78 78 78 79 77 77 74 72 74 88 88 89 92 94 93 91 90 93 113 116 109 103 102 105 102 100 101
69 72 69 63 62 68 74 76 75 72 70 72 72 73 74 75 77 77 80 82 80 79 77 75 76 90 89 91 91 92 92 89 84 94 111 85 94 96 95 99 101 99 102
76 71 73 65 70 70 70 72 72 73 73 74 74 73 74 74 75 74 76 80 78 78 79 78 78 81 85 89 89 89 87 89 93 89 76 75 78 91 93 92 87 86 93
83 76 79 67 71 68 68 69 71 74 74 74 74 72 73 73 74 75 77 79 77 78 78 77 78 77 77 79 83 83 80 80 124 83 78 85 83 89 92 92 84 80 83
83 78 84 69 68 65 65 66 69 73 74 74 73 70 70 70 71 73 77 79 77 77 77 76 78 77 77 76 77 77 74 52 66 80 78 76 75 78 87 87 85 84 88
86 84 90 86 71 65 63 66 66 69 72 71 69 67 67 67 69 71 73 77 77 78 77 76 78 78 77 75 75 73 65 7 90 78 75 75 72 74 78 82 80 80 83
86 85 85 92 95 88 69 63 65 67 68 68 67 66 68 70 70 70 71 72 73 76 78 78 78 78 78 74 71 69 62 23 53 68 73 72 76 76 74 75 74 78 76
91 84 80 79 77 83 90 74 65 65 65 69 67 65 72 86 83 74 79 72 71 72 76 77 76 78 78 75 72 68 57 309 58 60 59 72 72 72 71 72 73 75 76
87 84 82 77 73 68 73 88 90 89 74 88 95 88 88 87 84 87 68 70 72 75 75 73 73 77 84 87 74 60 338 50 63 51 56 59 60 65 69 72 75 74 75
96 88 78 72 72 71 66 84 83 86 84 63 74 83 71 66 64 68 87 75 75 78 88 81 80 95 84 89 95 107 51 53 56 58 62 56 56 61 65 70 75 75 72
91 81 69 57 68 73 79 66 65 70 69 64 64 78 76 81 95 85 96 111 105 111 99 104 118 77 69 65 52 53 46 40 42 49 60 56 55 61 63 64 68 73 71
87 73 69 62 71 74 81 82 73 74 65 60 64 67 71 68 65 73 76 74 78 77 73 76 72 78 69 68 63 57 55 44 44 46 58 56 52 56 59 58 61 66 65
99 79 63 50 54 75 76 70 99 81 62 71 49 56 65 64 70 78 81 76 70 73 83 73 73 72 66 60 55 51 50 50 43 41 62 62 51 47 47 47 51 56 58
122 96 83 83 96 113 140 138 77 80 96 79 69 46 58 61 62 59 75 77 70 68 70 70 71 69 64 59 53 46 41 44 45 41 48 74 67 49 40 39 42 47 52
117 103 81 36 83 100 84 87 65 48 60 73 74 43 59 50 48 59 55 75 75 80 85 74 77 69 70 68 59 47 42 36 36 36 37 35 67 73 54 42 37 38 36
84 89 94 88 90 87 100 120 93 85 75 65 69 61 62 80 64 59 50 63 67 70 81 90 88 72 68 59 51 42 40 41 34 31 34 40 31 36 67 56 36 33 31
130 115 107 102 101 102 99 122 111 90 76 63 59 57 36 43 64 88 52 35 77 85 87 84 84 73 67 55 55 50 38 39 34 30 31 32 37 27 31 73 57 39 33
127 120 116 109 105 108 120 118 109 88 71 59 55 61 61 38 25 57 122 143 86 96 82 86 84 75 68 50 52 52 38 34 36 37 19 22 24 23 19 19 38 76 60
126 124 108 114 111 106 110 123 108 104 84 69 50 46 71 68 40 51 355 97 94 116 115 119 114 115 91 58 136 103 96 72 42 44 22 9 28 23 21 23 11 12 63
133 134 123 111 100 97 69 72 106 94 83 71 52 51 52 67 57 55 87 105 140 135 134 127 133 132 107 272 291 272 215 155 89 46 33 24 21 28 28 22 21 19 7
145 135 123 109 103 94 94 76 86 100 94 87 62 51 42 48 48 39 81 111 129 159 150 159 176 186 209 232 324 319 306 354 26 115 47 40 28 23 24 19 18 20 15
153 142 133 118 108 95 96 90 97 85 84 51 11 43 46 52 54 37 40 89 146 125 149 186 188 224 229 227 211 312 314 353 291 257 157 56 30 29 17 16 13 16 12
146 137 130 118 112 103 97 97 102 88 76 65 44 47 44 62 52 41 25 45 109 106 159 164 187 242 235 251 254 250 247 264 274 275 271 333 358 33 19 13 19 17 11
137 134 130 123 109 100 104 107 101 94 94 84 53 38 36 65 55 48 18 347 304 267 231 213 211 224 256 252 256 251 255 257 266 271 266 272 293 354 22 28 17 17 5